FW1555 Weather Reports


Display with metric or nautical units.
time (UTC)temp
F
wind
direction
speed
MPH
gust
MPH
rain 1hr
in
rain 24hr
in
rain mn
in
humidity
%
barometer
mb
20260831224557 74 0 0.0 0.0 0.00 0.06 0.00 83 1018.3
20260831223057 74 0 0.0 1.0 0.00 0.06 0.00 82 1018.2
20260831221608 74 0 0.0 0.0 0.00 0.06 0.00 83 1018.3
20260831220105 74 254 0.0 1.0 0.00 0.06 0.00 82 1018.4
20260831214559 74 0 0.0 8.0 0.00 0.06 0.00 81 1018.4
20260831213050 74 0 2.0 7.0 0.00 0.06 0.00 81 1018.3
20260831211557 74 0 0.0 4.0 0.00 0.06 0.00 81 1018.4
20260831210053 74 263 0.0 10.0 0.00 0.06 0.00 81 1018.5
20260831204550 75 0 1.0 8.0 0.00 0.06 0.00 80 1018.6
20260831203106 76 0 1.0 4.0 0.00 0.06 0.00 76 1018.4
20260831201554 76 0 0.0 0.0 0.00 0.06 0.00 76 1018.4
20260831200053 76 0 0.0 1.0 0.00 0.06 0.00 76 1018.6
20260831194604 77 0 0.0 0.0 0.00 0.06 0.00 76 1018.7
20260831193053 77 0 0.0 2.0 0.00 0.06 0.00 72 1018.8
20260831191548 78 0 0.0 3.0 0.00 0.06 0.00 70 1018.9
20260831190109 78 0 0.0 4.0 0.00 0.06 0.00 71 1019.2
20260831184556 78 0 0.0 3.0 0.00 0.06 0.00 71 1019.3
20260831183108 78 0 0.0 1.0 0.00 0.06 0.00 69 1019.4
20260831181602 79 202 0.0 2.0 0.00 0.06 0.00 71 1019.5
20260831174554 79 0 0.0 4.0 0.00 0.06 0.00 70 1019.8
20260831173056 80 0 0.0 2.0 0.00 0.06 0.00 68 1019.8
20260831171558 79 51 0.0 3.0 0.00 0.06 0.00 67 1019.7
20260831170058 78 0 0.0 4.0 0.00 0.06 0.00 68 1019.9
20260831164552 79 0 0.0 3.0 0.00 0.06 0.00 67 1020.0
20260831163049 79 44 0.0 5.0 0.00 0.06 0.00 69 1019.9
20260831161600 78 0 0.0 2.0 0.00 0.06 0.00 70 1020.1
20260831160106 77 0 0.0 3.0 0.00 0.06 0.00 72 1020.1
20260831154622 78 0 0.0 4.0 0.00 0.06 0.00 72 1020.1
20260831153050 77 0 0.0 2.0 0.00 0.06 0.00 74 1020.2
20260831151602 76 0 0.0 4.0 0.00 0.06 0.00 77 1020.2
20260831150109 75 0 0.0 1.0 0.00 0.06 0.00 80 1020.1
20260831144600 74 0 0.0 3.0 0.00 0.06 0.00 80 1020.4
20260831143049 74 0 0.0 2.0 0.00 0.06 0.00 81 1020.5
20260831141602 73 0 0.0 1.0 0.00 0.06 0.00 81 1020.4
20260831140059 72 0 0.0 0.0 0.00 0.06 0.00 83 1020.3
20260831134553 72 0 0.0 4.0 0.00 0.06 0.00 86 1020.2
20260831133050 71 0 0.0 0.0 0.00 0.06 0.00 87 1020.2
20260831131554 70 0 0.0 0.0 0.00 0.06 0.00 89 1020.2
20260831130059 69 0 0.0 0.0 0.00 0.06 0.00 92 1020.1
20260831124553 69 0 0.0 0.0 0.00 0.06 0.00 94 1020.2
20260831123054 68 0 0.0 0.0 0.00 0.06 0.00 94 1020.3
20260831121600 67 0 0.0 0.0 0.00 0.06 0.00 95 1020.2
20260831120058 66 0 0.0 0.0 0.00 0.06 0.00 96 1020.1
20260831114554 66 0 0.0 0.0 0.00 0.06 0.00 97 1020.0
20260831113107 66 0 0.0 0.0 0.00 0.06 0.00 97 1019.8
20260831111611 66 0 0.0 0.0 0.00 0.06 0.00 97 1019.7
20260831110104 66 0 0.0 0.0 0.00 0.06 0.00 97 1019.7
20260831104605 66 0 0.0 0.0 0.00 0.06 0.00 97 1019.5
20260831103054 66 0 0.0 0.0 0.00 0.06 0.00 97 1019.5
20260831101559 66 0 0.0 0.0 0.00 0.06 0.00 97 1019.3
20260831100051 66 0 0.0 0.0 0.00 0.06 0.00 97 1019.1
20260831094605 66 0 0.0 0.0 0.00 0.06 0.00 96 1019.1
20260831093101 66 0 0.0 0.0 0.00 0.06 0.00 96 1019.1
20260831091603 66 0 0.0 0.0 0.00 0.06 0.00 96 1018.9
20260831090051 66 0 0.0 0.0 0.00 0.06 0.00 96 1018.9
20260831084554 67 0 0.0 0.0 0.00 0.06 0.00 96 1018.7
20260831083101 67 0 0.0 0.0 0.00 0.06 0.00 95 1018.9
20260831081601 67 0 0.0 0.0 0.00 0.06 0.00 96 1018.6
20260831080132 67 0 0.0 0.0 0.00 0.06 0.00 96 1018.7
20260831074606 67 0 0.0 0.0 0.00 0.06 0.00 97 1018.7
20260831073117 67 0 0.0 0.0 0.00 0.06 0.00 97 1018.7
20260831071556 67 0 0.0 0.0 0.00 0.06 0.00 97 1018.8
20260831070052 67 0 0.0 0.0 0.00 0.06 0.00 97 1018.8
20260831064556 67 0 0.0 0.0 0.00 0.06 0.00 97 1018.9
20260831063052 67 0 0.0 0.0 0.00 0.06 0.00 97 1018.7
20260831061602 67 0 0.0 2.0 0.00 0.06 0.00 98 1018.6
20260831060054 67 0 0.0 0.0 0.00 0.06 0.00 98 1018.7
20260831054600 68 0 0.0 0.0 0.00 0.06 0.00 99 1018.6
20260831053056 68 0 0.0 0.0 0.00 0.06 0.00 99 1018.6
20260831051602 68 0 0.0 0.0 0.00 0.06 0.00 99 1018.6
20260831044558 68 0 0.0 0.0 0.00 0.06 0.00 98 1018.7
20260831043103 69 0 0.0 0.0 0.00 0.06 0.00 98 1018.6
20260831041559 69 0 0.0 0.0 0.00 0.06 0.00 98 1018.4
20260831034609 70 0 0.0 0.0 0.00 0.06 0.06 98 1018.4
20260831033051 70 0 0.0 0.0 0.00 0.06 0.06 98 1018.4
20260831031558 70 0 0.0 0.0 0.00 0.06 0.06 98 1018.5
20260831030100 71 0 0.0 0.0 0.00 0.06 0.06 99 1018.9
20260831024608 72 0 0.0 0.0 0.00 0.06 0.06 98 1018.8
20260831023107 72 0 0.0 0.0 0.00 0.06 0.06 98 1018.8
20260831021600 72 0 0.0 0.0 0.02 0.06 0.06 98 1018.9
20260831020053 72 0 0.0 0.0 0.03 0.06 0.06 98 1018.9
20260831014550 72 0 0.0 0.0 0.03 0.06 0.06 97 1018.8
20260831013106 72 0 0.0 0.0 0.04 0.06 0.06 97 1018.8
20260831011553 72 0 0.0 0.0 0.03 0.04 0.04 96 1018.8
20260831010119 72 0 0.0 0.0 0.02 0.03 0.03 95 1018.6
20260831004558 73 0 0.0 0.0 0.03 0.03 0.03 95 1018.4
20260831003106 73 0 0.0 0.0 0.02 0.02 0.02 93 1018.3
20260831001551 74 0 0.0 0.0 0.01 0.01 0.01 91 1018.2
20260831000100 75 0 0.0 0.0 0.00 0.00 0.00 89 1018.0
20260830234554 76 0 0.0 0.0 0.00 0.00 0.00 86 1017.8
20260830233049 77 0 0.0 0.0 0.00 0.00 0.00 85 1017.6
20260830231601 77 247 0.0 4.0 0.00 0.00 0.00 84 1017.5
20260830230059 77 0 0.0 0.0 0.00 0.00 0.00 84 1017.4